| time (UTC) | temp F | wind direction | speed knots | gust knots | rain 1hr in | rain 24hr in | rain mn in | humidity % | barometer mb |
| 20260510122404 | 51 | 174 | 1.7 | 9.6 | 0.00 | 0.01 | 0.01 | 89 | 1007.9 |
| 20260510121403 | 51 | 184 | 2.6 | 9.6 | 0.00 | 0.01 | 0.01 | 89 | 1008.1 |
| 20260510120404 | 51 | 181 | 7.0 | 9.6 | 0.00 | 0.01 | 0.01 | 89 | 1008.1 |
| 20260510115403 | 51 | 177 | 6.1 | 10.4 | 0.00 | 0.01 | 0.01 | 89 | 1008.0 |
| 20260510114403 | 51 | 174 | 6.1 | 13.0 | 0.00 | 0.01 | 0.01 | 89 | 1007.8 |
| 20260510113403 | 51 | 194 | 4.3 | 10.4 | 0.00 | 0.01 | 0.01 | 90 | 1008.0 |
| 20260510112403 | 51 | 180 | 2.6 | 11.3 | 0.00 | 0.01 | 0.01 | 90 | 1007.8 |
| 20260510111404 | 51 | 177 | 3.5 | 11.3 | 0.00 | 0.01 | 0.01 | 92 | 1007.7 |
| 20260510110403 | 50 | 186 | 1.7 | 10.4 | 0.00 | 0.01 | 0.01 | 92 | 1007.7 |
| 20260510105403 | 50 | 162 | 4.3 | 10.4 | 0.00 | 0.01 | 0.01 | 92 | 1007.6 |
| 20260510104403 | 49 | 176 | 3.5 | 9.6 | 0.00 | 0.01 | 0.01 | 92 | 1007.4 |
| 20260510103403 | 49 | 171 | 1.7 | 13.0 | 0.00 | 0.01 | 0.01 | 92 | 1007.1 |
| 20260510102404 | 49 | 176 | 3.5 | 8.7 | 0.00 | 0.01 | 0.01 | 92 | 1007.4 |
| 20260510101403 | 48 | 208 | 2.6 | 8.7 | 0.00 | 0.01 | 0.01 | 92 | 1007.0 |
| 20260510100403 | 48 | 173 | 4.3 | 8.7 | 0.00 | 0.01 | 0.01 | 92 | 1006.4 |
| 20260510095404 | 48 | 167 | 1.7 | 12.2 | 0.00 | 0.01 | 0.01 | 92 | 1006.2 |
| 20260510094424 | 48 | 167 | 4.3 | 8.7 | 0.00 | 0.01 | 0.01 | 92 | 1006.7 |
| 20260510093403 | 47 | 179 | 4.3 | 7.8 | 0.00 | 0.01 | 0.01 | 91 | 1006.6 |
| 20260510092424 | 47 | 188 | 3.5 | 7.8 | 0.00 | 0.01 | 0.01 | 90 | 1006.5 |
| 20260510091403 | 47 | 180 | 1.7 | 7.0 | 0.00 | 0.01 | 0.01 | 90 | 1006.4 |
| 20260510090403 | 48 | 166 | 1.7 | 5.2 | 0.00 | 0.01 | 0.01 | 90 | 1006.3 |
| 20260510085424 | 48 | 164 | 3.5 | 7.8 | 0.00 | 0.01 | 0.01 | 90 | 1006.2 |
| 20260510084403 | 49 | 176 | 1.7 | 7.8 | 0.00 | 0.01 | 0.01 | 90 | 1006.3 |
| 20260510083403 | 49 | 161 | 3.5 | 7.8 | 0.00 | 0.01 | 0.01 | 89 | 1006.1 |
| 20260510082403 | 49 | 153 | 1.7 | 7.0 | 0.00 | 0.01 | 0.01 | 89 | 1006.3 |
| 20260510081403 | 50 | 171 | 0.9 | 7.8 | 0.00 | 0.01 | 0.01 | 89 | 1006.5 |
| 20260510080403 | 50 | 173 | 1.7 | 10.4 | 0.00 | 0.01 | 0.01 | 89 | 1006.7 |
| 20260510075403 | 50 | 162 | 2.6 | 10.4 | 0.01 | 0.01 | 0.01 | 88 | 1006.7 |
| 20260510074403 | 50 | 160 | 3.5 | 13.9 | 0.01 | 0.01 | 0.01 | 88 | 1006.6 |
| 20260510073403 | 51 | 180 | 3.5 | 11.3 | 0.00 | 0.00 | 0.00 | 87 | 1006.5 |
| 20260510072403 | 51 | 168 | 4.3 | 15.6 | 0.00 | 0.00 | 0.00 | 86 | 1006.6 |
| 20260510071403 | 51 | 167 | 2.6 | 13.9 | 0.00 | 0.00 | 0.00 | 86 | 1006.3 |
| 20260510070403 | 51 | 152 | 5.2 | 14.8 | 0.00 | 0.00 | 0.00 | 85 | 1006.4 |
| 20260510065403 | 51 | 177 | 4.3 | 13.0 | 0.00 | 0.00 | 0.00 | 84 | 1006.6 |
| 20260510064403 | 52 | 171 | 4.3 | 15.6 | 0.00 | 0.00 | 0.00 | 83 | 1006.7 |
| 20260510063402 | 52 | 169 | 7.0 | 15.6 | 0.00 | 0.00 | 0.00 | 83 | 1006.5 |
| 20260510062403 | 52 | 183 | 4.3 | 14.8 | 0.00 | 0.00 | 0.00 | 83 | 1006.5 |
| 20260510061402 | 52 | 154 | 4.3 | 10.4 | 0.00 | 0.00 | 0.00 | 83 | 1006.3 |
| 20260510060403 | 52 | 165 | 0.9 | 19.1 | 0.00 | 0.00 | 0.00 | 82 | 1006.2 |
| 20260510055402 | 52 | 171 | 5.2 | 14.8 | 0.00 | 0.00 | 0.00 | 82 | 1006.5 |
| 20260510054424 | 52 | 167 | 6.1 | 12.2 | 0.00 | 0.00 | 0.00 | 82 | 1006.7 |
| 20260510053403 | 51 | 163 | 4.3 | 14.8 | 0.00 | 0.00 | 0.00 | 82 | 1006.7 |
| 20260510052403 | 51 | 184 | 2.6 | 12.2 | 0.00 | 0.00 | 0.00 | 83 | 1006.7 |
| 20260510051403 | 50 | 165 | 4.3 | 10.4 | 0.00 | 0.00 | 0.00 | 83 | 1006.7 |
| 20260510050424 | 50 | 196 | 2.6 | 8.7 | 0.00 | 0.00 | 0.00 | 84 | 1006.6 |
| 20260510045403 | 50 | 179 | 0.0 | 5.2 | 0.00 | 0.00 | 0.00 | 84 | 1006.5 |
| 20260510044403 | 49 | 190 | 1.7 | 10.4 | 0.00 | 0.00 | 0.00 | 84 | 1006.4 |
| 20260510043403 | 49 | 158 | 4.3 | 9.6 | 0.00 | 0.00 | 0.00 | 84 | 1006.4 |
| 20260510042403 | 49 | 188 | 3.5 | 8.7 | 0.00 | 0.00 | 0.00 | 84 | 1006.5 |
| 20260510041423 | 49 | 191 | 1.7 | 7.8 | 0.00 | 0.00 | 0.00 | 85 | 1006.0 |
| 20260510040404 | 48 | 171 | 0.9 | 6.1 | 0.00 | 0.00 | 0.00 | 85 | 1005.9 |
| 20260510035402 | 49 | 162 | 1.7 | 5.2 | 0.00 | 0.00 | 0.00 | 84 | 1005.9 |
| 20260510034403 | 49 | 162 | 0.0 | 6.1 | 0.00 | 0.00 | 0.00 | 83 | 1006.2 |
| 20260510033402 | 50 | 157 | 3.5 | 8.7 | 0.00 | 0.00 | 0.00 | 83 | 1006.4 |
| 20260510032403 | 50 | 159 | 1.7 | 6.1 | 0.00 | 0.00 | 0.00 | 83 | 1006.5 |
| 20260510030403 | 50 | 154 | 2.6 | 8.7 | 0.00 | 0.00 | 0.00 | 82 | 1006.4 |
| 20260510024404 | 50 | 147 | 2.6 | 10.4 | 0.00 | 0.00 | 0.00 | 83 | 1006.7 |
| 20260510023404 | 50 | 159 | 0.9 | 8.7 | 0.00 | 0.00 | 0.00 | 83 | 1006.7 |
| 20260510022404 | 50 | 153 | 2.6 | 7.0 | 0.00 | 0.00 | 0.00 | 83 | 1006.6 |
| 20260510021404 | 50 | 128 | 1.7 | 14.8 | 0.00 | 0.00 | 0.00 | 82 | 1006.5 |
| 20260510015404 | 50 | 122 | 1.7 | 5.2 | 0.00 | 0.00 | 0.00 | 81 | 1006.9 |
| 20260510014404 | 50 | 163 | 2.6 | 7.0 | 0.00 | 0.00 | 0.00 | 81 | 1006.9 |
| 20260510013404 | 50 | 159 | 0.9 | 6.1 | 0.00 | 0.00 | 0.00 | 81 | 1007.0 |
| 20260510012403 | 50 | 144 | 0.9 | 6.1 | 0.00 | 0.00 | 0.00 | 81 | 1006.9 |
| 20260510011404 | 50 | 148 | 2.6 | 7.0 | 0.00 | 0.00 | 0.00 | 81 | 1007.1 |
| 20260510010425 | 50 | 154 | 0.9 | 3.5 | 0.00 | 0.00 | 0.00 | 81 | 1007.1 |
| 20260510005403 | 50 | 147 | 0.9 | 5.2 | 0.00 | 0.00 | 0.00 | 81 | 1007.3 |
| 20260510004404 | 50 | 155 | 1.7 | 7.8 | 0.00 | 0.00 | 0.00 | 80 | 1007.4 |
| 20260510003403 | 50 | 154 | 1.7 | 7.0 | 0.00 | 0.00 | 0.00 | 80 | 1007.4 |
| 20260510002404 | 50 | 167 | 3.5 | 7.8 | 0.00 | 0.00 | 0.00 | 80 | 1007.3 |
| 20260510001404 | 50 | 150 | 0.9 | 4.3 | 0.00 | 0.00 | 0.00 | 80 | 1007.4 |
| 20260510000404 | 50 | 146 | 0.0 | 6.1 | 0.00 | 0.00 | 0.00 | 79 | 1007.3 |
| 20260509235425 | 50 | 174 | 1.7 | 8.7 | 0.00 | 0.00 | 0.00 | 79 | 1007.3 |
| 20260509234403 | 50 | 189 | 0.0 | 8.7 | 0.00 | 0.00 | 0.00 | 79 | 1007.3 |
| 20260509233404 | 50 | 155 | 2.6 | 7.0 | 0.00 | 0.00 | 0.00 | 79 | 1007.4 |
| 20260509232404 | 50 | 174 | 1.7 | 7.8 | 0.00 | 0.00 | 0.00 | 79 | 1007.2 |
| 20260509231403 | 50 | 163 | 0.9 | 7.0 | 0.00 | 0.00 | 0.00 | 79 | 1007.3 |
| 20260509230404 | 51 | 142 | 2.6 | 10.4 | 0.00 | 0.00 | 0.00 | 78 | 1007.2 |
| 20260509225403 | 51 | 152 | 0.9 | 8.7 | 0.00 | 0.00 | 0.00 | 77 | 1007.2 |
| 20260509224425 | 51 | 157 | 1.7 | 7.8 | 0.00 | 0.00 | 0.00 | 77 | 1007.2 |
| 20260509223425 | 51 | 131 | 2.6 | 10.4 | 0.00 | 0.00 | 0.00 | 77 | 1007.4 |
| 20260509222403 | 51 | 181 | 1.7 | 9.6 | 0.00 | 0.00 | 0.00 | 77 | 1007.5 |
| 20260509221404 | 51 | 154 | 4.3 | 8.7 | 0.00 | 0.00 | 0.00 | 77 | 1007.5 |
| 20260509220404 | 51 | 154 | 2.6 | 12.2 | 0.00 | 0.00 | 0.00 | 77 | 1007.6 |
| 20260509215403 | 51 | 161 | 3.5 | 8.7 | 0.00 | 0.00 | 0.00 | 77 | 1007.6 |
| 20260509214404 | 51 | 170 | 4.3 | 7.8 | 0.00 | 0.00 | 0.00 | 76 | 1007.7 |
| 20260509213403 | 51 | 159 | 1.7 | 9.6 | 0.00 | 0.00 | 0.00 | 75 | 1007.8 |
| 20260509212404 | 52 | 166 | 4.3 | 12.2 | 0.00 | 0.00 | 0.00 | 74 | 1007.8 |
| 20260509211403 | 52 | 174 | 3.5 | 12.2 | 0.00 | 0.00 | 0.00 | 74 | 1007.8 |
| 20260509210425 | 52 | 189 | 0.0 | 7.0 | 0.00 | 0.00 | 0.00 | 73 | 1007.9 |
| 20260509205404 | 52 | 160 | 1.7 | 13.9 | 0.00 | 0.00 | 0.00 | 74 | 1008.0 |
| 20260509204403 | 53 | 160 | 1.7 | 12.2 | 0.00 | 0.00 | 0.00 | 73 | 1008.1 |
| 20260509203404 | 53 | 151 | 3.5 | 15.6 | 0.00 | 0.00 | 0.00 | 70 | 1008.1 |
| 20260509202424 | 55 | 153 | 6.1 | 13.0 | 0.00 | 0.00 | 0.00 | 67 | 1008.1 |
| 20260509201403 | 55 | 181 | 3.5 | 13.0 | 0.00 | 0.00 | 0.00 | 67 | 1008.0 |
| 20260509200404 | 56 | 180 | 5.2 | 14.8 | 0.00 | 0.00 | 0.00 | 66 | 1008.0 |
| 20260509195403 | 56 | 147 | 3.5 | 13.0 | 0.00 | 0.00 | 0.00 | 65 | 1008.1 |
| 20260509194404 | 55 | 161 | 3.5 | 12.2 | 0.00 | 0.00 | 0.00 | 66 | 1008.1 |
| 20260509193404 | 54 | 117 | 3.5 | 13.0 | 0.00 | 0.00 | 0.00 | 66 | 1008.2 |
| 20260509192403 | 54 | 171 | 3.5 | 10.4 | 0.00 | 0.00 | 0.00 | 67 | 1008.1 |
| 20260509191404 | 54 | 125 | 1.7 | 11.3 | 0.00 | 0.00 | 0.00 | 66 | 1008.3 |
| 20260509190403 | 54 | 141 | 4.3 | 9.6 | 0.00 | 0.00 | 0.00 | 64 | 1008.5 |
| 20260509185404 | 55 | 135 | 1.7 | 14.8 | 0.00 | 0.00 | 0.00 | 61 | 1008.6 |
| 20260509184403 | 56 | 166 | 4.3 | 11.3 | 0.00 | 0.00 | 0.00 | 59 | 1008.7 |
| 20260509183404 | 57 | 195 | 2.6 | 13.9 | 0.00 | 0.00 | 0.00 | 59 | 1008.8 |
| 20260509182403 | 57 | 167 | 2.6 | 12.2 | 0.00 | 0.00 | 0.00 | 57 | 1008.8 |
| 20260509181403 | 57 | 199 | 2.6 | 12.2 | 0.00 | 0.00 | 0.00 | 55 | 1008.7 |
| 20260509180404 | 58 | 180 | 6.1 | 13.0 | 0.00 | 0.00 | 0.00 | 51 | 1008.7 |
| 20260509175404 | 58 | 178 | 5.2 | 13.9 | 0.00 | 0.00 | 0.00 | 49 | 1008.8 |
| 20260509174425 | 58 | 187 | 8.7 | 14.8 | 0.00 | 0.00 | 0.00 | 47 | 1008.9 |
| 20260509173424 | 59 | 189 | 4.3 | 13.0 | 0.00 | 0.00 | 0.00 | 46 | 1008.8 |
| 20260509172403 | 58 | 165 | 2.6 | 10.4 | 0.00 | 0.00 | 0.00 | 44 | 1008.9 |
| 20260509171425 | 58 | 182 | 4.3 | 11.3 | 0.00 | 0.00 | 0.00 | 42 | 1008.9 |
| 20260509170404 | 58 | 172 | 6.1 | 9.6 | 0.00 | 0.00 | 0.00 | 42 | 1009.0 |
| 20260509165404 | 58 | 174 | 5.2 | 9.6 | 0.00 | 0.00 | 0.00 | 44 | 1009.1 |
| 20260509164404 | 58 | 168 | 4.3 | 10.4 | 0.00 | 0.00 | 0.00 | 40 | 1009.1 |
| 20260509163403 | 58 | 175 | 5.2 | 11.3 | 0.00 | 0.00 | 0.00 | 39 | 1009.3 |
| 20260509162403 | 59 | 172 | 3.5 | 8.7 | 0.00 | 0.00 | 0.00 | 38 | 1009.4 |
| 20260509161403 | 59 | 180 | 3.5 | 8.7 | 0.00 | 0.00 | 0.00 | 38 | 1009.6 |
| 20260509160403 | 59 | 194 | 2.6 | 8.7 | 0.00 | 0.00 | 0.00 | 38 | 1009.8 |
| 20260509155403 | 59 | 174 | 3.5 | 7.8 | 0.00 | 0.00 | 0.00 | 38 | 1009.9 |
| 20260509154403 | 59 | 178 | 2.6 | 8.7 | 0.00 | 0.00 | 0.00 | 39 | 1010.1 |
| 20260509153403 | 58 | 158 | 4.3 | 8.7 | 0.00 | 0.00 | 0.00 | 39 | 1010.3 |
| 20260509152404 | 58 | 124 | 2.6 | 10.4 | 0.00 | 0.00 | 0.00 | 40 | 1010.5 |
| 20260509151403 | 58 | 162 | 2.6 | 7.8 | 0.00 | 0.00 | 0.00 | 40 | 1010.6 |
| 20260509150424 | 57 | 158 | 2.6 | 10.4 | 0.00 | 0.00 | 0.00 | 40 | 1010.7 |
| 20260509145403 | 57 | 148 | 0.9 | 13.9 | 0.00 | 0.00 | 0.00 | 41 | 1010.6 |
| 20260509144403 | 57 | 168 | 4.3 | 11.3 | 0.00 | 0.00 | 0.00 | 41 | 1010.7 |
| 20260509143404 | 57 | 221 | 1.7 | 11.3 | 0.00 | 0.00 | 0.00 | 41 | 1010.7 |
| 20260509142403 | 57 | 170 | 2.6 | 11.3 | 0.00 | 0.00 | 0.00 | 44 | 1010.9 |
| 20260509141403 | 57 | 145 | 3.5 | 9.6 | 0.00 | 0.00 | 0.00 | 42 | 1010.9 |
| 20260509140403 | 56 | 176 | 4.3 | 13.9 | 0.00 | 0.00 | 0.00 | 45 | 1010.9 |
| 20260509135403 | 55 | 149 | 3.5 | 13.0 | 0.00 | 0.00 | 0.00 | 47 | 1010.9 |
| 20260509134402 | 55 | 186 | 4.3 | 13.0 | 0.00 | 0.00 | 0.00 | 46 | 1010.9 |
| 20260509133403 | 55 | 175 | 4.3 | 9.6 | 0.00 | 0.00 | 0.00 | 46 | 1010.9 |
| 20260509132425 | 55 | 144 | 3.5 | 11.3 | 0.00 | 0.00 | 0.00 | 47 | 1011.0 |
| 20260509131403 | 54 | 168 | 0.9 | 9.6 | 0.00 | 0.00 | 0.00 | 49 | 1011.1 |
| 20260509130403 | 53 | 162 | 3.5 | 11.3 | 0.00 | 0.00 | 0.00 | 48 | 1011.3 |
| 20260509125403 | 52 | 154 | 1.7 | 9.6 | 0.00 | 0.00 | 0.00 | 49 | 1011.3 |
| 20260509124403 | 52 | 185 | 4.3 | 10.4 | 0.00 | 0.00 | 0.00 | 49 | 1011.5 |
| 20260509123423 | 51 | 187 | 3.5 | 9.6 | 0.00 | 0.00 | 0.00 | 51 | 1011.4 |